Chicago Midway, IL

5:39 PM CDT on April 24, 2017 (GMT -0500)
Chicago-Midway

Weather History for KMDW - December, 2011

Change the Weather History Date:

Thursday, December 29, 2011

  Actual Average Record
Temperature  
Mean Temperature 40 °F 26 °F  
Max Temperature 48 °F 32 °F 64 °F (1984)
Min Temperature 32 °F 20 °F -8 °F (1976)
Degree Days  
Heating Degree Days 25 39  
Month to date heating degree days 1037  
Since 1 July heating degree days 2172  
Cooling Degree Days 0 0  
Month to date cooling degree days 0  
Year to date cooling degree days 1045  
Moisture  
Dew Point 31 °F    
Average Humidity 73    
Maximum Humidity 87    
Minimum Humidity 56    
Precipitation  
Precipitation 0.00 in 0.07 in 0.78 in (1978)
Month to date precipitation 2.42  
Year to date precipitation 38.94  
Sea Level Pressure  
Sea Level Pressure 29.66 in    
Wind  
Wind Speed 9 mph (SW)    
Max Wind Speed 18 mph    
Max Gust Speed 30 mph    
Visibility 10 miles    
Events Rain    
T = Trace of Precipitation, MM = Missing Value Source: NWS Daily Summary

Daily Weather History Graph

Daily Weather History Graph

Search for Another Location

Airport or City:

Trip Planner

Search our weather history database for the weather conditions in past years. The results will help you decide how hot, cold, wet, or windy it might be!

Date:

Astronomy

Dec. 29, 2011 Rise Set
Actual Time 7:17 AM CST 4:28 PM CST
Civil Twilight 6:46 AM CST 4:59 PM CST
Nautical Twilight 6:11 AM CST 5:34 PM CST
Astronomical Twilight 5:37 AM CST 6:08 PM CST
Moon 10:06 AM CST (12/29) 10:09 PM CST (12/29)
Length of Visible Light 10h 13m
Length of Day
9h 10m
Waxing Crescent, 27% of the Moon is Illuminated
Dec 29
Waxing Crescent
Jan 1
First Quarter
Jan 9
Full
Jan 16
Last Quarter
Jan 23
New

Hourly Weather History & Observations

Time (CST) Temp. Windchill Dew Point Humidity Pressure Visibility Wind Dir Wind Speed Gust Speed Precip Events Conditions
12:51 AM 32.0 °F 25.6 °F 27.0 °F 82% 29.83 in 10.0 mi South 6.9 mph - N/A   Overcast
1:51 AM 33.1 °F 26.1 °F 28.0 °F 82% 29.81 in 10.0 mi SSW 8.1 mph - N/A   Overcast
2:51 AM 34.0 °F 26.0 °F 28.9 °F 82% 29.77 in 10.0 mi SSW 10.4 mph - N/A   Overcast
3:51 AM 34.0 °F 28.8 °F 28.9 °F 82% 29.75 in 10.0 mi SSW 5.8 mph - N/A   Overcast
4:51 AM 33.8 °F 27.7 °F 30.2 °F 87% 29.68 in 7.0 mi South 6.9 mph - N/A Rain Light Rain
5:51 AM 35.1 °F 27.4 °F 30.9 °F 85% 29.67 in 10.0 mi SSE 10.4 mph - 0.00 in   Overcast
6:51 AM 35.6 °F 28.0 °F 30.2 °F 81% 29.62 in 10.0 mi South 10.4 mph - N/A   Overcast
7:51 AM 35.1 °F 25.5 °F 30.0 °F 82% 29.64 in 10.0 mi South 15.0 mph 21.9 mph N/A   Mostly Cloudy
8:51 AM 37.0 °F 27.7 °F 30.9 °F 79% 29.61 in 10.0 mi SSW 16.1 mph 23.0 mph N/A   Scattered Clouds
9:51 AM 39.9 °F 33.4 °F 30.9 °F 70% 29.60 in 10.0 mi SSW 10.4 mph 23.0 mph N/A   Scattered Clouds
10:51 AM 43.0 °F 36.0 °F 32.0 °F 65% 29.57 in 10.0 mi SW 13.8 mph 24.2 mph N/A   Partly Cloudy
11:51 AM 44.1 °F 36.5 °F 32.0 °F 63% 29.54 in 10.0 mi WSW 17.3 mph 29.9 mph N/A   Partly Cloudy
12:51 PM 45.0 °F 37.9 °F 33.1 °F 63% 29.53 in 10.0 mi WSW 16.1 mph 23.0 mph N/A   Partly Cloudy
1:51 PM 46.9 °F - 33.1 °F 59% 29.55 in 10.0 mi West 18.4 mph 25.3 mph N/A   Partly Cloudy
2:51 PM 48.0 °F - 33.1 °F 56% 29.58 in 10.0 mi West 17.3 mph 20.7 mph N/A   Partly Cloudy
3:51 PM 46.0 °F 40.6 °F 33.1 °F 61% 29.60 in 10.0 mi West 11.5 mph - N/A   Partly Cloudy
4:51 PM 44.1 °F 38.6 °F 32.0 °F 63% 29.64 in 10.0 mi West 10.4 mph - N/A   Scattered Clouds
5:51 PM 42.8 °F 39.3 °F 32.0 °F 66% 29.63 in 10.0 mi West 5.8 mph - N/A   Partly Cloudy
6:51 PM 39.9 °F 34.5 °F 30.9 °F 70% 29.70 in 10.0 mi WSW 8.1 mph - N/A   Partly Cloudy
7:51 PM 39.2 °F 35.9 °F 30.2 °F 70% 29.69 in 10.0 mi West 4.6 mph - N/A   Mostly Cloudy
8:51 PM 39.0 °F 36.8 °F 30.9 °F 73% 29.73 in 10.0 mi WSW 3.5 mph - N/A   Overcast
9:51 PM 37.9 °F 35.5 °F 30.9 °F 76% 29.74 in 10.0 mi West 3.5 mph - N/A   Overcast
10:51 PM 37.0 °F 34.5 °F 30.9 °F 79% 29.73 in 10.0 mi SSE 3.5 mph - N/A   Overcast
11:51 PM 37.0 °F - 30.9 °F 79% 29.73 in 10.0 mi Calm Calm - N/A   Mostly Cloudy